Tracking 28799 objects as of 18-Apr-2024
HD Live streaming from Space Station
objects crossing your sky now

ASTROCAST-0101

Track ASTROCAST-0101 now!
10-day predictions
ASTROCAST-0101 is classified as:


NORAD ID: 47430
Int'l Code: 2021-006T
Perigee: 491.0 km
Apogee: 504.8 km
Inclination: 97.4 °
Period: 94.4 minutes
Semi major axis: 6868 km
RCS: Unknown
Launch date: January 24, 2021
Source: (SWTZ)
Launch site: AIR FORCE EASTERN TEST RANGE (AFETR)

Uplink (MHz):
Downlink (MHz):
Beacon (MHz):
Mode:
Call sign:
Status: Unknown

Your satellite tracking list
Your tracking list is empty




NASA's NSSDC Master Catalog

Two Line Element Set (TLE):
1 47430U 21006T   24108.04333423  .00019971  00000-0  80044-3 0  9990
2 47430  97.3502 162.1640 0010061 116.3310 243.8962 15.25009204177781
Source of the keplerian elements: AFSPC